Location: Bothwell
(42.3833°S, 147.0000°E)
Time: 14:00:54
(UTC+11:00)

OBJECT D - Pass Details

Date: 19 November 2025
Orbit: 437 x 585 km, 63.5° (Epoch: 12 December)

Event Time Altitude Azimuth Distance (km) Brightness Sun altitude
Exits shadow 03:52:34 11° 16° (NNE) 1,781 ? -16.2°
Maximum altitude 03:55:34 23° 65° (ENE) 1,240 ? -15.8°
Drops below altitude 10° 03:58:50 10° 116° (ESE) 1,837 ? -15.4°
Sets 04:01:21 0° 131° (SE) 2,710 ? -15.1°
